EW0898 Weather Reports


time (UTC)temp
C
wind
direction
speed
KPH
gust
KPH
rain 1hr
cm
rain 24hr
cm
rain mn
cm
humidity
%
barometer
mb
20260507042003 5 354 1.6 4.8 0.00 0.00 0.00 90 1013.5
20260507041003 4 355 1.6 6.4 0.00 0.00 0.00 90 1013.4
20260507040003 4 355 1.6 4.8 0.00 0.00 0.00 90 1013.3
20260507035003 4 355 1.6 4.8 0.00 0.00 0.00 90 1013.2
20260507034003 4 355 0.0 3.2 0.00 0.00 0.00 89 1013.2
20260507033218 4 0 0.0 1.6 0.00 0.00 0.00 89 1013.1
20260507032003 4 355 0.0 3.2 0.00 0.00 0.00 89 1013.2
20260507031003 3 0 0.0 1.6 0.00 0.00 0.00 89 1013.2
20260507030003 3 0 0.0 0.0 0.00 0.00 0.00 89 1013.1
20260507025003 3 0 0.0 0.0 0.00 0.00 0.00 89 1013.2
20260507024003 4 355 0.0 3.2 0.00 0.00 0.00 88 1013.2
20260507023217 4 355 0.0 3.2 0.00 0.00 0.00 88 1013.2
20260507022215 5 354 0.0 3.2 0.00 0.00 0.00 88 1012.9
20260507021217 5 352 0.0 3.2 0.00 0.00 0.00 89 1012.8
20260507020003 4 355 0.0 1.6 0.00 0.00 0.00 88 1012.9
20260507015003 4 355 1.6 3.2 0.00 0.00 0.00 88 1012.9
20260507014003 3 0 0.0 0.0 0.00 0.00 0.00 87 1012.8
20260507013003 5 355 1.6 3.2 0.00 0.00 0.00 87 1012.7
20260507012003 5 355 0.0 3.2 0.00 0.00 0.00 86 1012.7
20260507011003 5 355 1.6 3.2 0.00 0.00 0.00 85 1012.6
20260507010219 5 356 1.6 4.8 0.00 0.00 0.00 85 1012.7
20260507005003 6 355 0.0 4.8 0.00 0.00 0.00 85 1012.6
20260507004003 6 354 1.6 4.8 0.00 0.00 0.00 85 1012.6
20260507003003 6 355 0.0 4.8 0.00 0.00 0.00 85 1012.5
20260507002003 6 353 1.6 3.2 0.00 0.00 0.00 84 1012.4
20260507001217 6 355 0.0 3.2 0.00 0.00 0.00 84 1012.4
20260507000003 6 0 0.0 0.0 0.00 0.00 0.00 84 1012.6
20260506235003 6 355 1.6 4.8 0.00 0.00 0.00 83 1012.6
20260506234003 7 7 1.6 8.0 0.00 0.00 0.00 83 1012.6
20260506233003 7 11 1.6 4.8 0.00 0.00 0.00 82 1012.6
20260506232218 7 11 1.6 6.4 0.00 0.00 0.00 82 1012.5
20260506231003 7 10 1.6 4.8 0.00 0.00 0.00 82 1012.5
20260506230003 7 10 0.0 4.8 0.00 0.00 0.00 82 1012.6
20260506225003 7 8 1.6 6.4 0.00 0.00 0.00 81 1012.4
20260506224003 7 7 3.2 6.4 0.00 0.00 0.00 81 1012.3
20260506223003 8 10 1.6 6.4 0.00 0.00 0.00 79 1012.4
20260506222003 8 5 4.8 11.3 0.00 0.00 0.00 78 1012.3
20260506221003 8 1 3.2 8.0 0.00 0.00 0.00 77 1012.3
20260506220218 8 3 4.8 11.3 0.00 0.00 0.00 76 1012.3
20260506215003 9 12 4.8 11.3 0.00 0.00 0.00 76 1012.0
20260506214003 9 8 4.8 9.7 0.00 0.00 0.00 76 1012.0
20260506213003 9 12 4.8 8.0 0.00 0.00 0.00 75 1012.0
20260506212003 10 359 4.8 9.7 0.00 0.00 0.00 74 1011.9
20260506211003 10 13 6.4 14.5 0.00 0.00 0.00 73 1011.7
20260506210218 10 12 8.0 14.5 0.00 0.00 0.00 73 1011.7
20260506205003 10 14 8.0 16.1 0.00 0.00 0.00 74 1011.6
20260506204003 10 5 6.4 16.1 0.00 0.00 0.00 75 1011.7
20260506203219 10 5 3.2 14.5 0.00 0.00 0.00 77 1011.5
20260506202003 10 11 3.2 6.4 0.00 0.00 0.00 77 1011.6
20260506201003 10 48 1.6 6.4 0.00 0.00 0.00 77 1011.5
20260506200003 10 58 1.6 4.8 0.00 0.00 0.00 78 1011.3
20260506195219 10 58 3.2 4.8 0.00 0.00 0.00 78 1011.3
20260506194003 10 59 1.6 3.2 0.00 0.00 0.00 76 1011.2
20260506193003 10 59 1.6 3.2 0.00 0.00 0.00 76 1011.1
20260506192003 10 59 0.0 3.2 0.00 0.00 0.00 80 1010.9
20260506191003 10 0 0.0 0.0 0.00 0.00 0.00 79 1010.8
20260506190004 10 0 0.0 0.0 0.00 0.00 0.00 80 1010.6
20260506185003 10 0 0.0 0.0 0.00 0.00 0.00 79 1010.6
20260506184217 10 0 0.0 0.0 0.00 0.00 0.00 77 1010.7
20260506183003 11 59 0.0 1.6 0.00 0.00 0.00 74 1010.5
20260506182217 11 59 1.6 4.8 0.00 0.00 0.00 70 1010.4
20260506181003 11 61 3.2 4.8 0.00 0.00 0.00 70 1010.3
20260506180004 11 61 0.0 4.8 0.00 0.00 0.00 70 1010.3
20260506175218 11 61 1.6 4.8 0.00 0.00 0.00 70 1010.2
20260506174216 11 60 1.6 4.8 0.00 0.00 0.00 68 1010.0
20260506173218 11 60 3.2 8.0 0.00 0.00 0.00 67 1009.8
20260506172003 11 45 4.8 8.0 0.00 0.00 0.00 68 1009.7
20260506171218 11 49 3.2 8.0 0.00 0.00 0.00 68 1009.8
20260506170003 11 58 4.8 9.7 0.00 0.00 0.00 67 1009.7
20260506165003 11 67 3.2 8.0 0.00 0.00 0.00 68 1009.7
20260506164216 11 64 3.2 9.7 0.00 0.00 0.00 67 1009.7
20260506163003 11 87 3.2 9.7 0.00 0.00 0.00 65 1009.8
20260506162003 11 48 4.8 12.9 0.00 0.00 0.00 67 1009.7
20260506161003 12 67 4.8 12.9 0.00 0.00 0.00 65 1009.7
20260506160003 12 52 6.4 14.5 0.00 0.00 0.00 66 1009.6
20260506155218 12 49 4.8 14.5 0.00 0.00 0.00 65 1009.7
20260506154003 11 52 3.2 9.7 0.00 0.00 0.00 67 1009.7
20260506153003 11 60 4.8 12.9 0.00 0.00 0.00 66 1009.6
20260506152003 11 70 3.2 11.3 0.00 0.00 0.00 66 1009.6
20260506151003 11 57 3.2 12.9 0.00 0.00 0.00 65 1009.5
20260506150003 11 53 6.4 14.5 0.00 0.00 0.00 64 1009.4
20260506145003 11 51 4.8 16.1 0.00 0.00 0.00 65 1009.6
20260506144003 11 63 4.8 11.3 0.00 0.00 0.00 66 1009.4
20260506143003 11 74 8.0 19.3 0.00 0.00 0.00 64 1009.4
20260506142003 11 70 8.0 19.3 0.00 0.00 0.00 64 1009.4
20260506141217 11 69 6.4 20.9 0.00 0.00 0.00 64 1009.4
20260506140003 11 62 8.0 17.7 0.00 0.00 0.00 67 1009.3
20260506135003 11 50 11.3 22.5 0.00 0.00 0.00 67 1009.3
20260506134003 11 48 12.9 27.4 0.00 0.00 0.00 67 1009.4
20260506133003 11 45 11.3 24.1 0.00 0.00 0.00 68 1009.3
20260506132219 11 48 11.3 24.1 0.00 0.00 0.00 68 1009.3
20260506131003 11 46 14.5 25.7 0.00 0.00 0.00 69 1009.3
20260506130003 11 50 12.9 25.7 0.00 0.00 0.00 70 1009.2
20260506125216 11 50 12.9 25.7 0.00 0.00 0.00 70 1009.1
20260506124003 11 38 14.5 27.4 0.00 0.00 0.00 69 1009.1
20260506123003 11 33 16.1 25.7 0.00 0.00 0.00 68 1009.1
20260506122003 11 38 14.5 25.7 0.00 0.00 0.00 66 1009.0
20260506121003 11 27 14.5 27.4 0.00 0.00 0.00 65 1008.9
20260506120003 11 28 14.5 25.7 0.00 0.00 0.00 64 1008.9
20260506115003 11 34 14.5 24.1 0.00 0.00 0.00 65 1008.8
20260506114003 11 32 14.5 25.7 0.00 0.00 0.00 66 1008.8
20260506113003 11 18 11.3 20.9 0.00 0.00 0.00 68 1008.8
20260506112003 11 19 11.3 20.9 0.00 0.00 0.00 68 1008.7
20260506111003 11 12 11.3 20.9 0.00 0.00 0.00 66 1008.8
20260506110218 11 12 12.9 20.9 0.00 0.00 0.00 66 1008.7
20260506105003 11 17 14.5 27.4 0.00 0.00 0.00 65 1008.8
20260506104218 11 24 14.5 24.1 0.00 0.00 0.00 64 1008.6
20260506103003 11 19 12.9 25.7 0.00 0.00 0.00 66 1008.5
20260506102003 11 26 12.9 22.5 0.00 0.00 0.00 66 1008.6
20260506101215 11 27 11.3 20.9 0.00 0.00 0.00 66 1008.5
20260506100217 11 29 14.5 29.0 0.00 0.00 0.00 65 1008.4
20260506095003 11 31 11.3 27.4 0.00 0.00 0.00 67 1008.4
20260506094217 11 32 12.9 22.5 0.00 0.00 0.00 66 1008.3
20260506093003 11 32 11.3 25.7 0.00 0.00 0.00 68 1008.3
20260506092003 11 27 12.9 24.1 0.00 0.00 0.00 69 1008.2
20260506091003 11 35 9.7 24.1 0.00 0.00 0.00 72 1008.2
20260506090003 11 27 9.7 19.3 0.00 0.00 0.00 70 1008.2
20260506085003 11 34 11.3 19.3 0.00 0.00 0.00 70 1008.0
20260506084003 11 30 11.3 19.3 0.00 0.00 0.00 70 1007.9
20260506083003 11 38 9.7 20.9 0.00 0.00 0.00 71 1007.9
20260506082003 10 34 11.3 25.7 0.00 0.00 0.00 70 1007.9
20260506081003 10 20 9.7 17.7 0.00 0.00 0.00 72 1007.9
20260506073219 10 46 9.7 17.7 0.00 0.00 0.00 65 1007.8
20260506072003 10 39 11.3 24.1 0.00 0.00 0.00 67 1007.8
20260506071003 10 30 11.3 22.5 0.00 0.00 0.00 73 1007.7
20260506062003 10 16 11.3 20.9 0.00 0.00 0.00 80 1007.3
20260506061003 10 21 8.0 25.7 0.00 0.00 0.00 81 1007.3
20260506051003 10 7 6.4 14.5 0.00 0.00 0.00 83 1007.1
20260506045003 10 17 6.4 14.5 0.00 0.00 0.00 83 1007.1
20260506044219 10 10 4.8 12.9 0.00 0.00 0.00 82 1007.0
20260506043003 10 2 4.8 9.7 0.00 0.00 0.00 82 1007.1